Wetbulb
58.30 58.17 57.79 57.73 57.52 57.45 57.51 57.68 57.88 58.28 58.45 58.47 58.51 58.38 58.49 58.78 58.32 56.73 52.49 57.51 60.65 67.37 68.96 61.05 59.27 59.82 62.61 62.57 69.33 69.76 58.74 57.55 57.74 57.69 60.32 64.80 64.30 66.31 68.00 64.17 64.82 66.03 65.93 67.88 68.61
57.93 57.87 57.70 57.96 57.72 57.79 57.54 57.34 57.22 57.32 57.89 58.04 58.12 58.10 57.99 58.52 54.79 53.73 62.10 69.35 69.68 69.72 55.26 59.07 57.88 59.74 58.95 61.89 65.43 63.98 57.67 59.82 62.77 61.70 62.25 64.51 64.85 65.63 63.83 63.70 63.36 64.21 67.67 67.90 69.49
57.91 57.55 57.92 57.98 57.78 57.76 57.44 57.40 57.35 57.35 57.02 57.25 57.25 57.50 57.69 57.28 53.64 57.08 70.74 68.94 69.22 66.54 54.68 59.55 62.32 62.20 58.44 61.30 65.00 64.26 59.94 64.79 64.31 63.83 64.55 64.17 63.96 65.55 62.95 61.41 62.99 62.41 64.53 67.31 67.71
57.92 58.01 57.89 57.92 57.79 57.60 57.64 57.71 57.51 57.33 57.22 57.18 57.06 57.19 57.92 54.75 48.60 60.18 70.97 70.83 69.89 56.56 53.04 54.99 58.34 56.41 55.48 57.51 65.38 61.98 65.23 65.78 66.17 65.87 64.82 63.71 65.77 63.12 64.56 63.81 66.47 65.75 66.10 65.70 63.99
58.20 57.69 57.76 57.64 57.72 57.60 57.60 57.53 57.27 57.27 57.50 57.56 57.68 57.72 55.08 51.64 52.94 62.98 70.02 68.40 60.21 53.33 51.15 54.84 56.03 55.90 54.02 60.03 63.76 62.41 64.79 65.67 66.48 65.29 64.57 65.19 63.71 64.13 65.30 66.87 67.50 66.77 66.62 64.56 64.02
57.82 57.89 57.62 57.52 57.57 57.73 57.53 57.23 56.90 56.68 57.12 57.81 57.96 57.81 51.91 47.31 61.65 64.19 63.53 62.41 58.49 52.47 51.55 55.48 57.76 58.19 55.92 58.06 61.77 64.77 64.50 64.34 64.91 64.02 64.00 61.97 63.27 64.02 65.29 67.05 66.48 65.84 64.79 64.30 64.19
57.36 57.35 57.43 57.50 57.50 57.57 57.30 56.96 56.60 56.64 56.69 57.70 57.89 56.96 52.42 52.53 60.06 61.88 61.91 59.72 57.86 50.37 51.53 57.39 59.93 56.64 56.42 58.65 66.00 65.11 61.67 62.38 62.62 63.29 62.71 62.54 59.40 60.95 65.31 66.96 65.16 64.80 63.84 65.36 64.41
57.82 57.72 57.30 57.15 57.09 56.84 56.67 56.23 56.28 56.83 57.04 57.57 57.56 54.50 50.18 60.94 60.04 59.03 59.06 57.17 56.91 51.70 52.94 58.53 60.86 57.31 53.92 64.52 64.00 61.71 60.59 55.80 61.09 62.42 62.50 62.20 55.02 62.67 64.96 65.06 63.31 64.21 64.39 64.97 65.65
57.92 57.59 57.47 57.05 56.66 56.01 55.37 55.62 56.82 58.43 58.60 58.17 53.96 51.18 52.24 61.23 54.49 57.08 58.86 54.38 52.22 53.22 54.06 59.36 58.55 53.64 53.75 49.65 55.55 57.16 52.56 55.02 56.42 62.03 61.04 60.01 57.33 61.97 64.68 64.56 62.38 62.93 63.23 64.12 64.58
57.68 57.49 57.39 56.91 56.42 55.59 54.68 54.96 57.54 57.90 58.02 58.64 57.49 51.05 56.36 55.39 54.21 55.73 60.09 59.06 52.38 53.04 53.60 54.31 51.52 47.92 47.56 48.02 46.56 51.32 53.31 55.46 55.36 58.96 60.07 57.77 56.77 59.29 62.39 63.42 61.75 62.19 62.96 62.28 64.24
57.45 57.21 57.06 56.78 56.19 54.90 53.47 53.99 53.67 52.64 55.46 54.07 53.66 54.93 55.66 57.85 58.80 56.06 59.11 57.98 55.54 52.40 47.37 51.60 45.12 43.01 47.03 50.64 52.24 57.87 56.68 54.94 57.38 60.14 57.74 57.16 56.24 57.51 60.00 62.30 62.39 62.49 61.70 62.51 63.99
57.05 56.80 56.61 56.15 55.38 54.72 52.05 52.03 55.86 54.62 49.70 57.89 58.60 55.97 56.53 56.15 54.21 55.07 57.56 53.05 50.95 46.78 50.35 47.02 43.84 49.72 52.03 57.72 57.27 56.11 55.27 54.37 57.62 58.89 57.76 55.87 55.10 57.86 60.08 60.58 62.77 63.01 62.37 63.11 63.82
56.80 55.97 55.61 55.24 54.23 52.18 53.28 55.36 59.03 58.17 49.33 55.05 57.14 53.78 53.45 54.43 52.81 52.65 52.27 51.93 48.71 46.74 47.89 44.81 48.01 52.30 50.80 52.67 55.66 54.75 54.22 54.66 54.92 57.52 57.57 54.78 53.28 55.73 59.67 60.20 61.95 63.42 64.87 64.65 64.73
56.28 55.02 54.19 53.06 52.06 56.16 54.89 60.22 60.05 58.37 45.69 50.54 50.01 53.55 54.54 54.21 52.11 56.81 54.18 52.21 49.20 45.71 47.37 46.67 51.28 50.74 49.16 48.56 54.10 52.43 58.46 57.69 56.51 53.92 49.48 55.28 46.45 53.42 56.09 57.22 59.22 61.29 63.11 62.62 63.59
56.17 54.66 53.74 53.22 51.45 52.41 55.87 58.55 58.42 55.46 37.98 52.85 51.77 57.70 54.55 50.31 53.40 52.85 55.97 52.45 48.43 47.72 45.29 44.52 47.69 48.07 48.10 49.53 57.82 54.79 58.41 57.10 55.31 52.22 52.17 51.61 49.25 51.94 56.28 54.57 57.01 59.86 63.00 64.41 64.08
55.57 54.21 53.53 53.24 52.19 55.04 57.51 57.69 56.76 44.77 40.12 49.34 52.68 51.52 50.17 52.02 53.25 53.83 52.41 52.94 52.81 48.91 48.53 47.04 51.19 50.04 49.88 53.95 58.58 60.51 57.76 55.33 54.56 53.08 46.34 50.69 50.37 50.10 52.52 54.25 57.01 59.76 62.30 64.35 64.20
54.01 53.08 51.96 56.26 57.02 60.59 59.84 55.32 44.90 41.37 51.83 48.52 49.02 50.30 49.98 50.87 51.16 50.50 49.09 46.88 43.86 39.94 40.91 46.24 47.29 50.82 52.36 53.71 57.74 56.49 51.76 44.81 42.89 45.57 45.65 52.56 50.48 52.14 55.77 57.69 58.54 59.54 61.10 64.07 64.96
52.33 51.58 52.35 56.17 58.02 57.82 57.55 49.89 42.15 48.85 46.74 49.03 49.20 51.21 49.10 51.34 50.84 50.83 47.47 44.61 48.22 47.28 42.34 40.52 39.79 49.03 52.85 49.88 52.80 53.98 51.54 45.18 39.63 42.93 46.12 51.12 48.36 51.84 57.84 59.69 60.66 61.72 61.85 64.28 64.55
51.45 55.37 56.31 59.48 57.78 56.86 52.20 44.12 45.91 47.17 49.47 49.14 50.60 48.16 47.75 50.72 50.12 48.83 47.19 45.93 47.96 47.89 42.94 41.23 43.29 51.45 53.18 53.18 53.37 50.45 45.60 49.70 46.34 48.40 45.72 49.03 51.66 55.13 57.92 59.50 59.01 60.05 62.29 62.92 64.56
53.18 57.19 59.05 63.34 60.73 56.85 50.11 45.55 46.11 49.53 50.11 50.51 46.17 49.07 44.77 47.83 48.28 47.86 47.93 52.19 51.23 52.92 50.20 46.81 41.74 49.06 52.36 52.90 52.27 49.72 52.12 45.72 47.17 41.24 40.16 47.00 46.37 48.13 53.35 56.94 59.75 59.47 61.08 63.25 64.13
56.78 53.86 60.87 62.32 60.05 53.95 46.65 48.69 50.24 50.20 51.01 48.93 47.50 48.21 47.80 47.90 48.21 47.93 49.01 52.84 53.26 52.19 50.51 46.72 44.35 45.90 49.64 46.19 45.65 45.49 43.58 44.65 47.45 47.33 42.31 41.46 46.79 55.58 55.56 58.60 59.19 60.83 61.63 62.89 64.53
57.94 51.83 61.75 58.72 51.49 52.38 49.11 49.11 49.02 48.83 52.32 50.70 50.23 49.69 49.27 49.94 48.93 47.96 48.63 50.82 53.89 51.81 48.04 49.28 43.91 40.33 44.32 51.01 51.91 48.78 44.57 44.33 38.47 38.63 45.63 44.89 46.32 59.21 58.24 60.60 60.97 61.45 63.11 63.41 65.20
53.67 54.66 61.56 57.05 48.21 49.98 50.63 49.95 50.20 49.68 48.46 48.89 48.83 50.11 50.60 47.03 46.00 49.87 51.53 54.93 54.39 51.86 46.67 48.35 44.07 38.27 42.74 47.93 51.70 48.35 47.84 46.96 44.04 41.60 39.54 40.63 45.84 58.81 60.16 58.41 59.27 61.15 63.58 64.03 63.94
54.26 51.59 55.32 55.48 55.09 50.86 50.59 50.05 48.26 51.21 48.44 49.79 49.94 50.35 49.86 48.15 49.22 48.62 50.62 53.20 53.57 52.52 60.24 52.76 43.54 40.99 37.27 40.91 47.01 46.50 49.18 50.00 45.46 37.70 40.05 41.75 50.43 54.05 56.01 57.78 59.90 62.21 63.96 64.57 64.16
56.14 52.77 56.09 51.52 51.32 51.09 50.45 50.15 48.87 48.32 50.87 51.02 51.82 50.88 48.76 45.19 48.41 48.58 51.77 50.86 53.50 56.10 52.19 46.60 40.74 43.51 45.49 48.03 48.44 48.69 48.79 49.54 47.04 49.57 42.71 46.41 50.71 54.74 57.34 59.28 59.23 63.69 63.38 63.67 64.66
53.17 54.44 56.91 54.84 53.42 52.24 47.54 48.69 48.29 47.69 47.53 46.24 47.44 51.19 50.02 47.15 48.14 46.10 48.85 47.39 49.93 51.58 48.90 48.63 43.05 45.43 44.66 49.32 49.95 47.88 50.53 50.60 52.51 51.07 50.13 51.66 54.09 58.41 60.10 58.78 58.75 58.92 64.49 63.02 64.75
60.45 60.90 57.76 53.52 52.77 49.06 48.91 50.54 48.56 49.53 50.77 50.73 48.53 47.89 49.96 51.50 52.65 50.30 49.87 49.75 49.41 47.41 47.22 45.75 44.56 43.10 38.97 47.36 47.15 44.63 47.82 49.17 50.97 52.59 50.82 51.06 54.26 55.30 54.85 56.69 57.00 58.68 64.52 64.68 63.81
MSLP
1017.01 1016.77 1016.53 1016.32 1016.11 1015.93 1015.78 1015.59 1015.41 1015.23 1015.03 1014.92 1014.80 1014.60 1014.40 1014.06 1013.46 1012.87 1011.77 1009.35 1008.92 1008.98 1008.98 1008.78 1008.55 1008.24 1008.09 1007.95 1007.57 1008.17 1009.43 1010.19 1010.29 1010.01 1010.05 1009.72 1009.20 1008.47 1008.13 1008.42 1009.08 1009.21 1010.25 1010.79 1011.52
1017.03 1016.77 1016.52 1016.28 1016.05 1015.83 1015.64 1015.51 1015.36 1015.18 1014.96 1014.81 1014.69 1014.50 1014.28 1014.05 1013.27 1011.36 1008.88 1008.55 1008.39 1008.53 1008.82 1008.57 1008.23 1007.91 1007.81 1007.15 1007.43 1008.25 1009.12 1009.58 1010.22 1010.26 1010.39 1009.86 1009.43 1008.82 1009.25 1009.44 1009.50 1009.55 1010.47 1010.84 1011.79
1017.01 1016.76 1016.48 1016.22 1015.96 1015.72 1015.53 1015.35 1015.19 1015.00 1014.81 1014.66 1014.54 1014.37 1014.21 1014.01 1012.51 1008.52 1007.05 1007.77 1008.17 1008.45 1008.54 1008.12 1007.59 1007.31 1007.18 1006.82 1007.11 1007.63 1008.36 1008.73 1009.49 1009.85 1010.70 1010.45 1010.17 1008.90 1009.49 1009.82 1009.01 1009.29 1010.05 1010.86 1011.86
1017.04 1016.77 1016.44 1016.15 1015.85 1015.61 1015.41 1015.23 1015.05 1014.89 1014.73 1014.57 1014.39 1014.18 1013.95 1013.65 1010.75 1007.29 1006.76 1007.08 1008.01 1008.33 1008.56 1008.14 1007.59 1007.28 1006.88 1006.50 1006.63 1007.67 1008.06 1008.75 1009.50 1010.29 1010.99 1011.28 1011.35 1010.74 1009.67 1009.06 1008.95 1009.08 1009.89 1010.76 1011.50
1016.98 1016.71 1016.40 1016.05 1015.75 1015.46 1015.27 1015.10 1014.92 1014.75 1014.61 1014.42 1014.22 1014.06 1013.61 1012.37 1008.89 1006.83 1007.08 1007.43 1007.98 1008.30 1008.29 1008.07 1007.43 1006.79 1006.33 1005.91 1006.87 1007.65 1008.42 1009.21 1009.56 1010.59 1011.34 1011.56 1011.20 1010.31 1009.24 1008.97 1009.05 1009.10 1009.99 1010.82 1011.40
1016.90 1016.63 1016.34 1015.97 1015.61 1015.32 1015.05 1014.85 1014.72 1014.59 1014.47 1014.24 1014.08 1013.95 1013.41 1010.51 1005.91 1006.35 1006.93 1007.58 1007.59 1007.95 1008.00 1007.60 1006.67 1005.91 1005.83 1006.25 1006.75 1007.80 1009.05 1009.79 1010.42 1011.25 1012.11 1012.06 1012.04 1011.20 1009.83 1009.40 1009.35 1009.50 1010.21 1010.91 1011.16
1016.88 1016.55 1016.25 1015.87 1015.51 1015.24 1014.95 1014.65 1014.55 1014.42 1014.32 1014.16 1014.05 1013.73 1012.10 1008.78 1005.65 1006.01 1006.29 1006.97 1007.28 1007.36 1007.55 1006.91 1006.24 1006.02 1005.69 1006.26 1006.99 1008.18 1009.59 1010.84 1011.39 1011.99 1012.59 1012.72 1012.45 1010.41 1009.37 1009.29 1009.57 1009.91 1010.37 1010.75 1010.99
1016.76 1016.44 1016.20 1015.88 1015.49 1015.21 1014.84 1014.45 1014.28 1014.13 1014.06 1014.03 1013.95 1013.39 1010.49 1006.50 1005.85 1005.82 1005.84 1006.38 1006.76 1006.80 1006.91 1006.12 1005.70 1005.79 1006.02 1006.69 1007.97 1009.01 1010.11 1011.34 1012.50 1012.63 1013.14 1013.03 1011.93 1010.73 1009.75 1009.53 1009.85 1010.17 1010.33 1010.55 1011.09
1016.64 1016.34 1016.13 1015.79 1015.35 1015.03 1014.61 1014.21 1013.89 1013.66 1013.68 1013.76 1013.67 1012.69 1008.86 1005.88 1005.72 1005.37 1005.28 1005.73 1006.17 1006.39 1006.31 1005.99 1005.52 1005.87 1006.07 1006.95 1008.52 1009.84 1010.92 1011.61 1012.53 1013.30 1013.35 1013.29 1012.31 1011.13 1010.65 1009.71 1010.18 1010.34 1010.35 1010.57 1011.23
1016.67 1016.29 1015.97 1015.57 1015.12 1014.76 1014.21 1013.73 1013.33 1013.37 1013.30 1012.97 1012.19 1011.62 1007.64 1005.18 1004.79 1004.88 1004.77 1004.95 1005.65 1006.05 1006.10 1005.85 1005.72 1006.12 1006.67 1007.50 1008.35 1009.80 1010.59 1012.10 1013.05 1013.88 1014.33 1014.26 1013.58 1012.24 1011.93 1011.47 1010.66 1010.57 1010.53 1010.87 1011.34
1016.59 1016.23 1015.85 1015.37 1014.94 1014.72 1013.90 1013.01 1013.48 1012.83 1011.49 1009.92 1008.71 1007.39 1005.40 1004.60 1004.44 1004.67 1004.70 1004.81 1005.14 1005.73 1006.11 1005.78 1006.11 1006.19 1006.42 1006.69 1007.06 1008.23 1009.65 1011.47 1013.15 1014.25 1014.74 1014.87 1014.56 1013.31 1012.69 1012.47 1011.90 1010.97 1010.68 1011.07 1011.42
1016.47 1016.09 1015.61 1015.08 1014.71 1014.57 1014.65 1012.70 1009.92 1008.51 1008.22 1007.20 1006.61 1005.80 1004.95 1004.43 1004.46 1004.44 1004.52 1005.01 1005.32 1005.67 1005.91 1006.15 1006.10 1005.71 1005.55 1006.32 1006.88 1008.40 1010.22 1011.81 1013.57 1013.88 1014.85 1015.13 1015.09 1015.01 1013.33 1013.45 1013.01 1012.26 1011.21 1011.06 1011.44
1016.34 1015.94 1015.44 1014.79 1014.19 1014.03 1012.63 1010.48 1008.13 1007.55 1007.52 1005.61 1005.29 1004.71 1004.47 1004.45 1004.14 1004.19 1004.75 1004.85 1005.34 1005.67 1005.79 1005.89 1004.57 1004.75 1004.83 1005.49 1006.33 1009.27 1009.64 1011.46 1012.24 1013.77 1015.04 1015.28 1015.29 1014.52 1013.91 1013.74 1013.47 1012.84 1012.27 1010.94 1011.49
1016.09 1015.79 1015.34 1014.45 1013.98 1012.29 1010.75 1007.99 1007.54 1007.24 1006.90 1005.19 1004.31 1003.96 1004.07 1004.22 1003.94 1003.73 1004.30 1004.65 1004.84 1005.25 1005.20 1004.97 1003.78 1003.95 1003.91 1004.28 1005.30 1008.31 1009.75 1011.52 1012.31 1013.15 1014.87 1015.29 1015.40 1014.72 1014.31 1014.17 1014.03 1013.79 1013.19 1011.51 1011.56
1015.89 1015.51 1015.24 1015.16 1014.29 1012.12 1008.91 1007.32 1007.07 1007.17 1006.65 1004.55 1003.77 1003.59 1003.77 1004.13 1003.29 1003.86 1003.91 1004.35 1004.58 1004.46 1004.77 1004.07 1003.15 1002.93 1003.09 1003.31 1004.75 1008.17 1010.44 1011.67 1012.24 1012.71 1014.47 1015.25 1015.39 1014.39 1014.33 1014.13 1013.62 1013.51 1013.09 1012.20 1011.69
1015.62 1015.21 1014.85 1014.23 1014.33 1010.69 1008.88 1008.08 1007.57 1007.55 1005.48 1003.91 1003.55 1003.71 1004.06 1003.87 1003.47 1003.69 1003.93 1004.09 1004.09 1004.19 1003.79 1003.22 1002.47 1002.21 1002.18 1002.66 1004.68 1007.92 1009.98 1011.95 1012.67 1012.81 1013.79 1013.58 1014.19 1013.95 1013.62 1011.97 1012.57 1012.54 1012.54 1012.09 1012.53
1015.07 1014.81 1014.81 1013.27 1011.09 1008.96 1008.46 1008.62 1008.23 1006.53 1004.63 1004.04 1003.61 1003.76 1003.95 1004.00 1003.93 1003.80 1004.24 1004.43 1004.38 1004.22 1003.84 1003.10 1002.60 1002.02 1001.85 1004.12 1004.91 1006.75 1009.10 1011.41 1012.44 1012.75 1013.37 1013.25 1013.43 1011.89 1011.57 1011.29 1010.95 1010.65 1011.86 1012.27 1012.21
1014.03 1013.93 1012.84 1011.51 1009.87 1009.39 1008.72 1008.62 1007.55 1005.54 1004.37 1003.90 1003.66 1004.15 1004.33 1004.50 1004.23 1003.80 1004.27 1004.43 1004.05 1004.06 1004.01 1003.35 1002.87 1001.94 1001.97 1002.58 1004.48 1006.09 1007.44 1009.31 1010.87 1011.99 1012.81 1012.94 1012.85 1011.26 1010.49 1010.02 1010.33 1010.85 1011.42 1011.91 1012.29
1012.77 1012.02 1011.31 1009.39 1009.71 1010.00 1009.69 1008.41 1006.64 1005.55 1004.79 1004.26 1004.15 1004.71 1004.89 1004.55 1004.38 1004.02 1003.97 1003.75 1003.46 1003.13 1003.59 1003.14 1002.48 1001.76 1001.71 1001.97 1002.97 1004.32 1005.89 1005.85 1009.20 1011.22 1011.88 1012.53 1012.98 1011.65 1009.93 1009.59 1010.31 1010.76 1011.19 1011.17 1011.21
1012.93 1011.06 1008.80 1007.17 1008.47 1009.14 1009.10 1007.64 1006.10 1005.44 1004.94 1004.51 1004.47 1004.79 1004.81 1004.68 1004.75 1004.30 1004.35 1003.85 1002.93 1002.93 1003.01 1003.42 1003.30 1001.99 1001.54 1001.80 1002.26 1003.22 1004.04 1005.33 1007.21 1009.80 1011.22 1011.95 1012.60 1012.20 1010.51 1010.09 1009.91 1010.07 1010.17 1010.51 1010.53
1012.86 1010.44 1006.63 1006.03 1007.19 1008.18 1008.19 1006.73 1005.52 1005.15 1004.98 1004.77 1004.73 1004.88 1004.89 1005.12 1005.28 1005.08 1005.15 1004.64 1003.89 1003.35 1003.49 1003.96 1004.18 1003.12 1001.94 1002.29 1002.85 1003.21 1003.90 1004.91 1006.16 1007.66 1009.18 1010.21 1010.77 1009.26 1008.91 1008.36 1009.26 1009.32 1009.42 1009.45 1010.16
1012.65 1009.97 1006.09 1005.92 1007.11 1007.12 1006.70 1005.72 1005.50 1004.98 1004.65 1004.60 1004.61 1004.68 1005.19 1005.36 1005.79 1006.15 1006.03 1005.36 1004.75 1004.41 1004.95 1005.24 1004.80 1004.65 1003.60 1002.78 1002.41 1002.92 1003.71 1004.67 1006.26 1007.05 1007.58 1008.19 1008.34 1007.23 1007.57 1007.41 1006.57 1007.37 1008.00 1008.80 1009.06
1013.66 1009.74 1006.31 1005.91 1006.66 1006.19 1005.56 1005.33 1005.26 1005.04 1005.09 1005.16 1005.19 1005.39 1005.46 1005.69 1006.53 1006.56 1006.01 1005.59 1005.17 1005.51 1006.11 1006.19 1005.93 1005.66 1004.69 1003.94 1003.32 1003.90 1004.19 1004.69 1005.56 1005.96 1006.71 1007.20 1007.10 1006.41 1007.13 1007.57 1006.40 1006.49 1007.07 1007.92 1008.72
1014.11 1009.89 1006.88 1006.13 1006.06 1005.95 1005.57 1005.03 1005.06 1005.23 1005.31 1005.59 1005.69 1005.67 1005.68 1005.77 1005.81 1006.45 1006.19 1005.87 1005.77 1006.01 1006.24 1006.47 1006.99 1007.33 1007.05 1006.23 1005.69 1005.27 1005.12 1005.32 1006.19 1006.80 1006.90 1006.36 1006.72 1007.01 1007.89 1007.87 1007.78 1007.41 1006.92 1007.25 1008.28
1013.58 1009.88 1007.94 1006.95 1005.96 1005.81 1005.40 1005.58 1005.19 1005.31 1005.56 1005.75 1005.91 1005.93 1006.24 1006.46 1006.65 1006.62 1006.89 1006.35 1006.57 1006.78 1006.78 1007.17 1007.76 1007.77 1007.19 1006.51 1006.14 1006.07 1005.97 1006.20 1007.12 1007.73 1007.43 1006.55 1006.65 1007.43 1007.97 1008.40 1008.59 1007.50 1007.31 1007.90 1008.35
1013.13 1010.32 1008.59 1007.61 1006.21 1006.00 1005.84 1005.62 1005.64 1005.93 1006.27 1006.55 1006.59 1006.42 1006.55 1006.92 1007.05 1007.33 1007.15 1007.12 1007.09 1007.23 1007.63 1008.20 1008.61 1008.59 1008.19 1007.53 1007.19 1007.29 1007.17 1007.29 1007.64 1008.29 1007.72 1007.17 1007.90 1008.38 1008.45 1007.51 1008.06 1008.84 1008.81 1009.34 1009.21
1012.55 1010.93 1009.86 1008.15 1007.01 1006.24 1005.77 1005.70 1006.07 1006.47 1006.73 1006.82 1007.06 1007.11 1007.12 1007.21 1007.18 1007.33 1007.38 1007.35 1007.42 1007.96 1008.44 1008.87 1009.26 1009.53 1009.44 1008.90 1008.65 1008.82 1009.41 1009.21 1009.38 1009.85 1010.56 1009.81 1009.73 1009.17 1008.90 1009.10 1008.85 1009.49 1009.90 1010.01 1011.49
Wind_Speed
12 11 11 10 10 9 10 11 10 10 11 11 11 12 13 13 16 5 8 9 8 11 3 6 8 12 12 7 6 2 2 3 1 5 3 5 5 10 6 20 15 10 18 17 15
12 11 11 10 10 11 10 10 10 11 12 12 11 12 13 13 6 11 14 16 5 10 5 8 10 13 7 7 5 4 2 1 15 8 3 6 5 11 9 9 14 16 24 22 25
11 12 12 11 11 11 10 10 10 10 10 11 11 12 12 10 6 8 3 22 10 8 7 12 13 11 8 10 8 5 3 5 3 11 5 2 4 7 21 10 18 22 19 22 19
12 12 11 11 11 11 11 11 11 11 10 10 11 11 11 5 1 2 4 20 10 6 6 8 10 9 9 10 10 3 6 5 10 6 8 3 2 10 11 16 18 19 14 17 12
12 12 11 11 11 12 12 12 12 11 11 10 10 10 7 4 10 7 9 10 7 5 8 13 11 10 10 2 8 6 8 6 9 4 9 8 10 9 5 23 17 19 17 14 10
12 13 12 12 12 12 12 12 12 11 11 10 9 9 4 5 2 13 12 8 8 10 9 14 10 11 8 1 7 7 7 11 8 5 11 13 8 12 2 20 15 14 16 11 10
12 13 13 13 13 13 13 13 13 12 10 9 7 7 5 14 7 9 11 8 9 10 9 15 19 9 7 1 14 13 13 9 5 4 8 15 13 4 3 14 18 13 12 13 9
13 13 13 13 13 14 14 13 14 12 9 8 5 5 8 8 12 11 9 9 10 10 13 16 15 10 5 5 7 6 7 5 4 2 4 3 5 3 14 18 16 16 13 13 14
13 13 13 13 13 12 14 16 15 12 8 6 4 4 9 1 6 10 8 11 11 8 13 18 13 7 6 2 4 3 3 10 1 8 5 5 2 6 8 14 14 14 11 12 12
13 13 13 13 13 13 17 17 7 8 5 8 8 6 9 7 7 10 7 11 11 10 10 9 4 5 4 3 6 15 7 7 7 4 3 2 8 14 9 10 9 12 12 10 12
14 14 14 13 13 11 11 2 2 2 6 10 5 7 11 10 4 3 8 9 7 7 8 8 2 7 10 14 14 4 11 15 9 6 2 6 2 13 10 9 8 5 12 13 12
15 15 14 14 13 9 5 4 9 7 8 11 17 11 8 4 2 9 7 5 6 6 7 2 9 11 15 5 9 10 15 7 8 13 1 4 5 9 14 5 4 9 6 17 13
16 16 16 16 18 6 6 10 12 13 5 9 14 8 7 5 10 9 8 9 7 8 10 9 13 17 16 11 11 3 2 9 9 11 4 5 4 6 4 5 8 9 12 14 14
16 18 18 24 3 5 6 15 15 6 4 1 4 3 4 5 6 12 10 9 7 10 10 10 18 14 13 12 8 5 12 9 20 9 1 5 2 4 6 8 6 9 13 7 9
16 18 16 8 9 5 10 14 6 3 6 9 4 6 4 6 3 9 9 8 13 9 7 12 11 9 9 12 12 8 14 11 14 9 5 7 2 4 4 9 13 13 11 4 9
16 17 13 3 5 12 14 16 6 2 3 2 7 6 4 8 7 9 7 7 9 10 8 10 7 6 8 2 20 24 17 5 5 2 1 8 6 5 13 28 23 20 11 4 7
17 11 6 7 5 7 9 5 3 4 3 2 3 5 1 2 7 9 7 7 5 1 5 8 9 8 4 18 19 16 6 1 1 2 1 9 8 8 24 21 26 21 14 10 8
20 15 11 7 8 8 7 4 4 11 7 3 2 8 4 6 8 8 8 7 10 9 5 5 4 4 4 8 14 15 10 8 3 2 2 3 2 6 10 18 19 18 16 13 20
29 4 4 7 13 4 2 3 3 9 11 9 9 5 5 7 4 6 8 9 9 9 3 2 7 6 10 8 8 4 6 8 8 2 3 1 2 12 14 13 19 20 19 18 16
4 4 8 12 13 5 1 7 4 6 8 11 6 7 1 4 3 3 3 8 2 8 8 7 5 7 11 5 7 3 5 3 3 6 4 6 7 5 10 7 15 23 19 16 6
3 4 9 7 9 2 5 8 3 5 5 6 7 7 4 2 7 4 9 12 18 6 6 6 1 11 6 5 6 3 4 4 5 6 5 5 5 14 19 17 10 12 19 19 13
5 4 6 5 1 4 6 2 3 1 1 4 4 4 6 6 5 5 6 4 11 11 5 8 3 6 9 6 9 7 5 6 4 9 2 5 5 12 17 16 15 10 17 20 18
4 7 8 4 4 8 2 5 1 7 8 7 7 9 6 5 5 5 3 6 9 7 4 7 6 6 10 10 8 5 6 4 4 2 6 3 6 10 11 8 13 12 15 14 15
4 5 3 3 7 10 7 4 5 4 3 4 6 7 7 5 6 5 4 2 5 4 4 4 3 1 2 1 4 6 9 11 6 2 6 7 5 10 6 7 4 9 15 19 17
4 5 9 7 2 7 5 7 5 1 4 2 2 5 8 5 8 8 2 1 9 4 6 2 4 6 9 2 3 8 8 9 11 17 4 3 9 10 7 7 3 6 6 9 14
4 4 8 10 5 3 2 4 4 11 7 7 8 11 4 7 7 7 9 3 2 5 3 5 5 7 8 11 11 11 14 13 15 22 18 7 9 5 5 7 13 10 13 3 6
5 6 4 8 8 2 3 4 9 7 4 2 5 7 8 9 8 6 7 9 3 3 1 1 1 3 4 8 8 8 16 18 12 16 6 9 6 3 4 6 4 10 17 16 11
Wind_Direction
342 338 335 332 326 320 317 318 316 313 308 311 315 317 319 319 309 214 241 240 189 232 228 275 211 239 243 249 146 183 23 147 95 205 181 321 89 143 96 128 143 140 131 145 117
341 338 333 328 325 324 320 318 315 315 313 313 315 316 320 323 279 249 230 231 135 155 226 238 208 227 238 237 161 140 121 350 182 219 51 334 338 130 98 78 136 140 140 133 126
341 339 337 332 327 323 319 316 315 316 314 315 316 318 320 318 266 238 249 219 173 165 256 244 251 225 235 239 182 178 176 121 148 151 215 151 321 282 108 171 152 135 147 135 142
340 339 337 329 324 318 315 315 317 316 315 315 316 318 314 273 29 62 56 182 160 185 229 262 264 251 242 247 154 186 121 117 127 162 158 129 55 262 237 160 140 132 142 133 140
337 337 334 329 323 317 315 315 315 314 315 315 313 322 313 226 250 159 150 139 153 184 224 234 251 241 239 212 81 79 82 87 110 108 115 128 262 228 358 142 134 139 131 135 156
337 333 332 331 327 322 318 314 312 310 307 310 313 313 242 259 194 156 170 156 211 182 214 240 249 239 272 301 127 132 123 117 71 133 96 94 313 263 154 125 146 143 139 154 175
334 331 333 330 325 324 319 314 311 304 298 304 312 287 259 250 310 154 142 177 212 177 219 239 251 264 270 110 127 133 127 109 66 26 92 98 265 107 160 160 142 137 157 168 178
333 330 329 327 324 324 316 308 302 294 284 283 293 276 256 252 241 262 168 171 203 196 224 250 250 259 292 97 62 144 118 132 16 46 32 322 205 154 195 148 147 152 178 167 132
332 328 327 324 321 321 310 305 294 286 262 243 229 231 266 281 241 231 251 179 193 210 225 249 253 246 303 244 29 15 252 108 30 17 28 348 147 344 357 153 155 164 183 144 138
329 324 321 320 316 317 311 291 280 306 213 204 262 282 267 225 200 224 208 211 186 195 233 248 248 216 252 273 216 231 150 140 130 145 8 29 335 320 360 351 172 178 160 136 141
329 321 322 317 313 323 338 272 236 218 258 218 205 235 323 88 83 240 198 243 180 196 211 225 143 216 229 225 252 162 120 122 118 142 133 165 281 315 314 336 332 277 158 137 143
325 324 320 314 309 317 290 249 256 292 311 248 252 250 298 325 166 231 160 212 200 190 223 165 231 234 240 142 59 329 126 85 97 132 95 156 266 284 284 299 343 321 212 152 156
326 330 325 318 312 282 224 253 290 295 291 296 215 215 213 222 223 166 170 224 195 224 197 212 239 218 240 214 129 239 322 169 146 132 69 118 290 307 231 314 322 330 299 147 153
330 329 328 321 315 332 260 255 243 296 300 213 227 118 174 222 268 158 197 196 192 209 240 225 252 224 227 252 165 95 54 186 129 124 119 197 286 277 230 271 288 282 291 175 158
322 327 320 325 315 284 269 311 336 342 331 178 110 130 277 205 151 154 194 248 261 237 179 245 242 255 222 233 104 132 119 163 146 111 134 192 204 240 264 257 253 247 257 255 173
316 325 320 210 212 250 297 302 319 250 233 212 162 176 198 248 244 143 174 240 279 288 268 241 255 247 252 130 103 116 129 111 57 47 106 194 208 197 198 206 217 226 238 229 245
313 310 285 300 232 313 294 277 314 249 225 313 155 150 266 3 199 163 181 219 233 205 284 257 261 274 168 101 123 106 139 320 230 192 355 338 194 254 202 215 217 211 198 192 237
315 308 214 235 260 313 306 303 256 320 33 216 89 95 43 106 275 163 170 225 241 254 265 188 260 223 174 188 155 161 168 160 263 172 124 322 253 260 289 207 198 216 210 191 205
314 166 223 233 219 247 306 290 252 355 353 339 51 19 59 291 280 177 203 207 228 226 217 235 242 217 193 211 154 211 220 213 99 69 96 124 344 299 20 174 197 207 216 207 194
306 277 258 233 174 202 274 268 22 1 344 331 17 179 4 316 339 126 343 324 346 30 31 357 359 293 202 144 287 179 267 52 32 142 200 133 147 264 304 202 186 199 206 208 146
262 288 255 194 171 215 250 266 62 81 1 323 326 35 330 345 358 28 35 336 2 14 53 358 31 294 124 129 212 289 296 304 143 137 143 162 179 205 222 189 189 214 214 199 181
305 284 254 122 179 210 242 7 304 223 198 327 274 352 14 331 45 66 7 323 349 352 26 360 292 322 287 261 191 215 224 207 127 289 151 133 241 184 198 202 172 203 203 202 186
299 278 286 148 259 289 162 171 219 23 10 4 351 3 351 334 124 168 211 326 342 45 33 326 336 347 337 359 4 11 332 316 286 276 275 167 252 170 194 231 202 201 185 189 181
280 286 208 185 233 256 274 256 142 142 233 37 323 326 319 340 326 185 153 355 356 101 29 4 307 323 240 316 298 310 335 340 6 310 255 245 170 178 201 247 305 282 201 176 180
234 275 328 302 265 345 46 5 6 55 65 344 255 268 23 357 25 5 140 138 3 333 358 5 292 307 308 253 304 313 325 309 21 1 308 273 150 128 150 150 172 45 162 168 168
281 347 318 298 296 308 112 207 353 66 46 357 8 357 359 7 43 25 4 93 223 352 36 357 324 356 306 6 3 357 15 23 38 19 353 27 65 40 269 106 64 43 17 53 100
339 327 311 286 304 248 246 104 86 66 116 221 0 332 1 20 355 348 315 304 134 121 285 10 93 358 305 28 353 61 14 20 58 39 11 12 340 2 57 38 74 99 84 4 39